Regional Weather Roundup
Issued by NWS Little Rock, AR

Home | Current Version | Previous Version | Graphics & Text | Print | Product List | Glossary On
Versions: 1 2 3 4 5 6 7 8 9 10 11 12 13 14 15 16 17 18 19 20 21 22 23 24 25 26 27 28 29 30 31 32 33 34 35 36 37 38 39 40 41 42 43 44 45 46 47 48 49 50
000
ASUS44 KLZK 290005
RWRLZK

WEATHER ROUNDUP FOR ARKANSAS
NATIONAL WEATHER SERVICE LITTLE ROCK AR
700 PM CDT THU AUG 28 2014

NOTE: "FAIR" INDICATES FEW OR NO CLOUDS BELOW 12,000 FEET WITH NO
SIGNIFICANT WEATHER AND/OR OBSTRUCTIONS TO VISIBILITY.

ARZ001-003-010-029-290100-
NORTHWEST ARKANSAS

CITY           SKY/WX    TMP DP  RH WIND       PRES   REMARKS
FAYETTEVILLE   CLEAR     85  61  44 S9        29.93S HX  85
6HR MIN TEMP:  85; 6HR MAX TEMP:  90;

FORT SMITH     CLEAR     90  64  42 S6        29.87S HX  91
6HR MIN TEMP:  90; 6HR MAX TEMP:  94;

HARRISON       CLEAR     83  63  50 S5        29.96S
6HR MIN TEMP:  83; 6HR MAX TEMP:  88;

BENTONVILLE    CLEAR     88  61  40 SW7       29.94S HX  88
6HR MIN TEMP:  88; 6HR MAX TEMP:  91;

ROGERS         CLEAR     86  60  41 SE9       29.94S HX  86
6HR MIN TEMP:  86; 6HR MAX TEMP:  91;

HIGHFILL       CLEAR     87  61  41 S6        29.92F HX  87
6HR MIN TEMP:  87; 6HR MAX TEMP:  92;

SPRINGDALE     PTCLDY    86  63  45 SE17      29.95S HX  87
$$

ARZ004-005-016-290100-
NORTH CENTRAL ARKANSAS

CITY           SKY/WX    TMP DP  RH WIND       PRES   REMARKS
BATESVILLE     CLEAR     91  63  38 S6        29.92S HX  92
6HR MIN TEMP:  91; 6HR MAX TEMP:  97;

FLIPPIN        CLEAR     90  57  33 S3        29.93R HX  88
6HR MIN TEMP:  88; 6HR MAX TEMP:  91;

MTN HOME       PTCLDY    89  60  37 S3        29.93R HX  89
6HR MIN TEMP:  89; 6HR MAX TEMP:  94;

$$

ARZ040-041-290100-
WEST CENTRAL ARKANSAS

CITY           SKY/WX    TMP DP  RH WIND       PRES   REMARKS
MENA           CLEAR     88  68  51 CALM      29.92F HX  91
MOUNT IDA      CLEAR     86  68  54 CALM      29.90F HX  89
6HR MIN TEMP:  86; 6HR MAX TEMP:  92;

$$

ARZ009-017-025-026-028-290100-
NORTHEAST ARKANSAS

CITY           SKY/WX    TMP DP  RH WIND       PRES   REMARKS
CORNING        LGT RAIN  90  66  45 SW3       29.94S HX  92
JONESBORO      CLEAR     89  65  44 SW6       29.93S HX  91
6HR MIN TEMP:  89; 6HR MAX TEMP:  94;

NEWPORT        CLEAR     87  70  57 SE7       29.93S HX  92
6HR MIN TEMP:  87; 6HR MAX TEMP:  94;

WALNUT RIDGE   CLEAR     88  64  45 S6        29.92F HX  89
6HR MIN TEMP:  88; 6HR MAX TEMP:  91;

BLYTHEVILLE    CLEAR     85  75  72 NE6       29.94S HX  93
6HR MIN TEMP:  85; 6HR MAX TEMP:  92;

$$

ARZ022-023-033-042-044-290100-
CENTRAL ARKANSAS

CITY           SKY/WX    TMP DP  RH WIND       PRES   REMARKS
LITTLE ROCK    PTCLDY    88  63  43 SE6       29.90F HX  89
6HR MIN TEMP:  88; 6HR MAX TEMP:  92;

N LITTLE ROCK  PTCLDY    88  66  48 E7        29.90F HX  90
6HR MIN TEMP:  88; 6HR MAX TEMP:  92;

JACKSONVILLE   CLEAR     88  68  51 E5        29.91S HX  91
6HR MIN TEMP:  88; 6HR MAX TEMP:  94;

SEARCY         CLEAR     89  67  48 MISG      29.92S HX  92
6HR MIN TEMP:  89; 6HR MAX TEMP:  94;

RUSSELLVILLE   PTCLDY    86  72  62 CALM      29.89F HX  92
6HR MIN TEMP:  86; 6HR MAX TEMP:  94;

CLINTON        FAIR      90  64  43 SE5       29.92R HX  91
$$

ARZ036-290100-
EAST ARKANSAS

CITY           SKY/WX    TMP DP  RH WIND       PRES   REMARKS
WEST MEMPHIS   CLEAR     85  69  58 CALM      29.92S HX  89
6HR MIN TEMP:  85; 6HR MAX TEMP:  93;

$$

ARZ050-053-066-070-073-290100-
SOUTHWEST ARKANSAS

CITY           SKY/WX    TMP DP  RH WIND       PRES   REMARKS
ARKADELPHIA    FAIR      89  73  59 CALM      29.89F HX  96
6HR MIN TEMP:  89; 6HR MAX TEMP:  95;

CAMDEN         MOCLDY    90  66  45 S3        29.88F HX  92
TEXARKANA      CLOUDY    87  72  60 SE3       29.88F HX  93
6HR MIN TEMP:  87; 6HR MAX TEMP:  94;

EL DORADO      PTCLDY    85  72  65 SE6       29.90F HX  91
6HR MIN TEMP:  85; 6HR MAX TEMP:  93;

DE QUEEN       CLEAR     87  71  58 E6        29.86F HX  93
6HR MIN TEMP:  87; 6HR MAX TEMP:  92;

$$

ARZ056-057-069-290100-
SOUTHEAST ARKANSAS

CITY           SKY/WX    TMP DP  RH WIND       PRES   REMARKS
PINE BLUFF     CLEAR     85  69  58 E5        29.90S HX  89
6HR MIN TEMP:  85; 6HR MAX TEMP:  94;

STUTTGART      CLEAR     88  66  48 E7        29.92F HX  90
6HR MIN TEMP:  88; 6HR MAX TEMP:  93;


$$




USA.gov is the U.S. government's official web portal to all federal, state and local government web resources and services.